| time (UTC) | temp F | wind direction | speed MPH | gust MPH | rain 1hr in | rain 24hr in | rain mn in | humidity % | barometer mb |
| 20260504174354 | 79 | 181 | 3.0 | 12.0 | 0.00 | 0.00 | 0.00 | 64 | 1014.6 |
| 20260504173338 | 78 | 162 | 3.0 | 6.0 | 0.00 | 0.00 | 0.00 | 65 | 1014.9 |
| 20260504172345 | 78 | 169 | 4.0 | 8.0 | 0.00 | 0.00 | 0.00 | 65 | 1015.0 |
| 20260504171337 | 77 | 167 | 4.0 | 11.0 | 0.00 | 0.00 | 0.00 | 64 | 1015.0 |
| 20260504170400 | 78 | 134 | 5.0 | 9.0 | 0.00 | 0.00 | 0.00 | 64 | 1015.2 |
| 20260504160333 | 76 | 149 | 5.0 | 10.0 | 0.00 | 0.00 | 0.00 | 67 | 1016.0 |
| 20260504150351 | 73 | 160 | 2.0 | 8.0 | 0.00 | 0.00 | 0.00 | 71 | 1016.0 |
| 20260504141335 | 70 | 141 | 2.0 | 7.0 | 0.00 | 0.00 | 0.00 | 75 | 1016.1 |
| 20260504140339 | 69 | 137 | 3.0 | 8.0 | 0.00 | 0.00 | 0.00 | 77 | 1016.4 |
| 20260504130334 | 64 | 131 | 2.0 | 5.0 | 0.00 | 0.00 | 0.00 | 80 | 1016.2 |
| 20260504110338 | 59 | 123 | 1.0 | 2.0 | 0.00 | 0.00 | 0.00 | 82 | 1016.0 |
| 20260504100325 | 60 | 152 | 1.0 | 3.0 | 0.00 | 0.00 | 0.00 | 80 | 1015.9 |
| 20260504081341 | 61 | 147 | 1.0 | 2.0 | 0.00 | 0.00 | 0.00 | 82 | 1016.6 |
| 20260504080327 | 61 | 131 | 1.0 | 2.0 | 0.00 | 0.00 | 0.00 | 82 | 1016.6 |
| 20260504070332 | 61 | 171 | 0.0 | 0.0 | 0.00 | 0.00 | 0.00 | 84 | 1017.7 |
| 20260504050342 | 63 | 187 | 0.0 | 2.0 | 0.00 | 0.00 | 0.00 | 77 | 1018.8 |
| 20260504045326 | 63 | 165 | 0.0 | 1.0 | 0.00 | 0.00 | 0.00 | 77 | 1018.9 |
| 20260504044356 | 63 | 161 | 0.0 | 1.0 | 0.00 | 0.00 | 0.00 | 76 | 1018.8 |
| 20260504043342 | 63 | 161 | 0.0 | 1.0 | 0.00 | 0.00 | 0.00 | 76 | 1018.9 |
| 20260504042331 | 64 | 161 | 0.0 | 1.0 | 0.00 | 0.00 | 0.00 | 75 | 1018.8 |
| 20260504041402 | 64 | 161 | 0.0 | 1.0 | 0.00 | 0.00 | 0.00 | 74 | 1018.9 |
| 20260504040326 | 64 | 150 | 0.0 | 2.0 | 0.00 | 0.00 | 0.00 | 73 | 1019.1 |
| 20260504035333 | 65 | 160 | 0.0 | 1.0 | 0.00 | 0.00 | 0.00 | 73 | 1018.9 |
| 20260504034340 | 65 | 183 | 0.0 | 1.0 | 0.00 | 0.00 | 0.00 | 73 | 1019.0 |
| 20260504033328 | 65 | 185 | 0.0 | 2.0 | 0.00 | 0.00 | 0.00 | 73 | 1018.8 |
| 20260504032336 | 66 | 185 | 0.0 | 1.0 | 0.00 | 0.00 | 0.00 | 71 | 1018.8 |
| 20260504031341 | 66 | 185 | 0.0 | 1.0 | 0.00 | 0.00 | 0.00 | 70 | 1018.9 |
| 20260504030342 | 66 | 168 | 1.0 | 2.0 | 0.00 | 0.00 | 0.00 | 70 | 1018.6 |
| 20260504025345 | 67 | 162 | 1.0 | 2.0 | 0.00 | 0.00 | 0.00 | 69 | 1018.5 |
| 20260504024331 | 67 | 137 | 2.0 | 5.0 | 0.00 | 0.00 | 0.00 | 69 | 1018.5 |
| 20260504023353 | 67 | 135 | 2.0 | 5.0 | 0.00 | 0.00 | 0.00 | 68 | 1018.4 |
| 20260504021329 | 68 | 135 | 2.0 | 5.0 | 0.00 | 0.00 | 0.00 | 66 | 1018.2 |
| 20260504020334 | 69 | 131 | 3.0 | 6.0 | 0.00 | 0.00 | 0.00 | 65 | 1018.1 |
| 20260504015339 | 69 | 131 | 3.0 | 6.0 | 0.00 | 0.00 | 0.00 | 65 | 1018.0 |
| 20260504014325 | 69 | 140 | 2.0 | 3.0 | 0.00 | 0.00 | 0.00 | 65 | 1017.9 |
| 20260504013333 | 70 | 140 | 2.0 | 3.0 | 0.00 | 0.00 | 0.00 | 63 | 1017.9 |
| 20260504012340 | 70 | 133 | 2.0 | 5.0 | 0.00 | 0.00 | 0.00 | 62 | 1017.9 |
| 20260504011327 | 71 | 129 | 2.0 | 4.0 | 0.00 | 0.00 | 0.00 | 61 | 1017.7 |
| 20260504010328 | 72 | 130 | 2.0 | 4.0 | 0.00 | 0.00 | 0.00 | 60 | 1017.8 |
| 20260504005337 | 73 | 135 | 3.0 | 5.0 | 0.00 | 0.00 | 0.00 | 57 | 1017.7 |
| 20260504004326 | 74 | 135 | 3.0 | 8.0 | 0.00 | 0.00 | 0.00 | 55 | 1017.7 |
| 20260504003332 | 75 | 146 | 2.0 | 2.0 | 0.00 | 0.00 | 0.00 | 54 | 1017.7 |
| 20260504002338 | 75 | 126 | 0.0 | 1.0 | 0.00 | 0.00 | 0.00 | 53 | 1017.9 |
| 20260504001344 | 76 | 126 | 1.0 | 2.0 | 0.00 | 0.00 | 0.00 | 50 | 1017.8 |
| 20260504000346 | 76 | 126 | 2.0 | 3.0 | 0.00 | 0.00 | 0.00 | 46 | 1017.9 |
| 20260503235331 | 76 | 128 | 2.0 | 5.0 | 0.00 | 0.00 | 0.00 | 44 | 1017.9 |
| 20260503234357 | 77 | 140 | 1.0 | 4.0 | 0.00 | 0.00 | 0.00 | 42 | 1017.9 |
| 20260503233327 | 78 | 150 | 1.0 | 3.0 | 0.00 | 0.00 | 0.00 | 40 | 1018.0 |
| 20260503232352 | 78 | 138 | 1.0 | 6.0 | 0.00 | 0.00 | 0.00 | 41 | 1018.0 |
| 20260503231336 | 78 | 113 | 3.0 | 8.0 | 0.00 | 0.00 | 0.00 | 40 | 1018.1 |
| 20260503230341 | 78 | 147 | 2.0 | 6.0 | 0.00 | 0.00 | 0.00 | 43 | 1018.3 |
| 20260503225328 | 78 | 146 | 2.0 | 5.0 | 0.00 | 0.00 | 0.00 | 45 | 1018.2 |
| 20260503224354 | 78 | 144 | 2.0 | 8.0 | 0.00 | 0.00 | 0.00 | 44 | 1018.4 |
| 20260503223336 | 78 | 135 | 4.0 | 8.0 | 0.00 | 0.00 | 0.00 | 43 | 1018.5 |
| 20260503222325 | 78 | 138 | 3.0 | 7.0 | 0.00 | 0.00 | 0.00 | 41 | 1018.7 |
| 20260503221333 | 78 | 123 | 2.0 | 4.0 | 0.00 | 0.00 | 0.00 | 43 | 1018.6 |
| 20260503220337 | 78 | 152 | 3.0 | 7.0 | 0.00 | 0.00 | 0.00 | 41 | 1019.0 |
| 20260503215325 | 79 | 154 | 2.0 | 5.0 | 0.00 | 0.00 | 0.00 | 45 | 1019.1 |
| 20260503214334 | 78 | 151 | 3.0 | 7.0 | 0.00 | 0.00 | 0.00 | 42 | 1019.0 |
| 20260503213336 | 78 | 142 | 2.0 | 5.0 | 0.00 | 0.00 | 0.00 | 44 | 1019.2 |
| 20260503212324 | 78 | 143 | 2.0 | 7.0 | 0.00 | 0.00 | 0.00 | 45 | 1019.3 |
| 20260503211355 | 78 | 140 | 1.0 | 10.0 | 0.00 | 0.00 | 0.00 | 42 | 1019.6 |
| 20260503210339 | 78 | 140 | 1.0 | 5.0 | 0.00 | 0.00 | 0.00 | 44 | 1019.6 |
| 20260503205326 | 78 | 223 | 2.0 | 12.0 | 0.00 | 0.00 | 0.00 | 41 | 1019.9 |
| 20260503204332 | 78 | 197 | 1.0 | 10.0 | 0.00 | 0.00 | 0.00 | 42 | 1020.1 |
| 20260503203336 | 78 | 82 | 3.0 | 8.0 | 0.00 | 0.00 | 0.00 | 47 | 1020.2 |
| 20260503202402 | 78 | 167 | 2.0 | 7.0 | 0.00 | 0.00 | 0.00 | 45 | 1020.4 |
| 20260503201327 | 78 | 133 | 3.0 | 8.0 | 0.00 | 0.00 | 0.00 | 43 | 1020.5 |
| 20260503200331 | 78 | 141 | 2.0 | 8.0 | 0.00 | 0.00 | 0.00 | 43 | 1020.7 |
| 20260503195403 | 78 | 140 | 3.0 | 8.0 | 0.00 | 0.00 | 0.00 | 46 | 1020.9 |
| 20260503194329 | 78 | 203 | 1.0 | 3.0 | 0.00 | 0.00 | 0.00 | 44 | 1021.0 |
| 20260503193351 | 77 | 119 | 1.0 | 4.0 | 0.00 | 0.00 | 0.00 | 43 | 1021.2 |
| 20260503192356 | 77 | 190 | 1.0 | 9.0 | 0.00 | 0.00 | 0.00 | 45 | 1021.3 |
| 20260503191341 | 78 | 201 | 2.0 | 7.0 | 0.00 | 0.00 | 0.00 | 45 | 1021.5 |
| 20260503190326 | 78 | 155 | 2.0 | 5.0 | 0.00 | 0.00 | 0.00 | 46 | 1021.6 |
| 20260503185352 | 77 | 130 | 2.0 | 7.0 | 0.00 | 0.00 | 0.00 | 46 | 1021.9 |
| 20260503184338 | 77 | 78 | 3.0 | 5.0 | 0.00 | 0.00 | 0.00 | 49 | 1021.9 |
| 20260503183342 | 77 | 196 | 1.0 | 7.0 | 0.00 | 0.00 | 0.00 | 44 | 1022.1 |
| 20260503182332 | 77 | 135 | 4.0 | 7.0 | 0.00 | 0.00 | 0.00 | 49 | 1022.2 |
| 20260503181359 | 77 | 142 | 2.0 | 8.0 | 0.00 | 0.00 | 0.00 | 46 | 1022.4 |
| 20260503180343 | 77 | 129 | 2.0 | 6.0 | 0.00 | 0.00 | 0.00 | 45 | 1022.5 |
| 20260503175330 | 76 | 132 | 1.0 | 8.0 | 0.00 | 0.00 | 0.00 | 47 | 1022.7 |